User: anonymous   Login
Location: Castro Valley
(37.6940°N, 122.0850°W)
Time: 17:05:24
(UTC-07:00)
Language:

PANSAT - Orbit

View from above orbital plane
View from above orbital plane
View from above satellite
View from above satellite

Ground track
Ground track

The orbit data is extracted from the following two-line orbital elements,

1 25520U 98064B   15209.49133971  .00001431  00000-0  45216-4 0  9996
2 25520 028.4581 356.4840 0004633 285.4863 123.1766 15.26459803928723
Epoch (UTC): 28 July 2015 11:47:31
Eccentricity: 0.0004633
inclination: 28.4581°
perigee height: 483 km
apogee height: 489 km
right ascension of ascending node: 356.4840°
argument of perigee: 285.4863°
revolutions per day: 15.26459803
mean anomaly at epoch: 123.1766°
orbit number at epoch: 92872

The dashed part of the orbit path shows where the satellite is in the earth's shadow,  

DLR